Wind_Speed
7 7 7 7 7 7 8 8 8 7 7 7 6 6 5 5 5 5 5 5 5 6 6 6 6 4 4 4 4 4 4 5 5 5 5 6 7 6 7 7 7 7 7
6 6 6 6 6 6 7 7 7 7 7 7 6 6 6 6 6 6 6 6 6 6 6 6 6 6 6 6 6 5 5 5 6 6 6 7 8 8 8 8 8 9 9
5 5 5 6 6 6 7 7 7 7 7 7 7 7 7 7 7 7 7 7 6 6 7 7 7 7 7 7 7 6 6 7 7 7 8 8 8 8 9 9 9 10 11
4 4 5 5 5 6 6 7 7 7 7 7 8 8 7 7 8 8 7 7 7 7 7 7 7 7 7 7 7 8 7 7 7 8 8 9 9 9 10 10 11 12 12
4 4 4 5 5 6 7 7 8 7 8 8 8 8 8 8 8 8 8 8 8 8 7 7 7 7 7 7 7 8 8 8 8 9 9 9 10 10 10 11 12 13 14
5 6 5 5 6 7 7 8 9 9 9 8 9 9 8 9 9 9 9 9 9 9 9 8 8 8 8 8 8 9 9 10 10 10 10 10 11 11 12 12 13 13 14
6 6 6 6 7 8 9 9 9 9 10 10 10 10 10 10 10 10 10 10 10 10 9 9 9 10 10 10 10 10 11 11 11 11 11 12 13 13 13 14 14 14 14
7 7 7 8 8 9 9 10 10 10 11 11 11 11 11 11 11 11 11 11 11 11 11 10 10 11 11 11 12 12 12 12 13 13 13 13 14 14 15 15 16 16 17
10 10 9 10 10 10 11 11 11 12 11 12 12 12 12 13 13 13 13 12 12 12 13 13 12 12 12 13 13 13 13 13 14 14 15 15 15 16 17 17 17 18 18
12 11 11 12 12 13 13 13 13 14 14 14 14 13 14 14 14 15 15 14 14 14 14 13 14 14 14 14 14 14 14 14 15 16 17 17 18 18 19 19 19 19 19
13 12 12 13 14 15 15 16 16 16 15 15 15 15 15 16 15 15 16 15 16 16 15 15 15 15 15 16 16 17 17 17 17 18 18 19 20 20 21 21 21 21 21
16 15 14 16 16 17 17 17 18 18 17 17 17 18 18 18 17 17 17 17 17 17 17 18 18 18 18 18 19 19 19 19 19 20 20 20 21 21 21 21 22 22 22
18 17 16 17 17 18 18 18 19 19 19 19 20 19 19 20 20 19 19 19 19 19 19 20 20 20 20 20 20 21 21 21 21 21 21 21 21 22 22 22 22 22 22
18 18 18 17 17 18 19 20 20 20 20 20 21 21 21 22 22 21 21 21 21 21 21 21 22 22 22 22 22 22 22 22 22 22 22 22 22 22 21 22 22 23 23
19 19 19 19 19 19 20 20 21 21 21 22 22 22 22 23 24 23 23 22 23 23 24 24 24 24 24 24 24 23 23 23 23 23 23 23 23 23 22 22 23 23 23
19 19 19 20 21 21 20 21 21 21 22 23 23 23 24 25 25 25 25 25 25 25 25 25 26 26 25 24 25 25 24 24 24 24 24 24 24 24 24 24 24 24 24
19 19 20 20 20 20 20 21 21 21 22 23 23 24 25 25 25 25 25 25 26 26 25 26 26 26 26 26 26 26 26 26 25 25 24 24 25 25 25 25 24 24 25
20 20 21 20 20 21 22 22 22 22 22 23 24 24 25 25 25 25 25 25 26 26 26 26 25 27 28 28 28 29 28 27 27 26 26 26 26 26 25 25 25 25 26
21 20 20 20 21 21 22 23 22 22 23 24 24 25 26 26 26 25 26 26 26 26 26 26 26 26 27 28 28 29 29 28 28 27 27 26 26 25 25 25 25 25 25
23 21 21 21 21 22 23 22 22 23 24 25 26 26 26 26 25 25 26 26 26 26 26 26 26 26 26 26 26 27 27 27 27 27 27 26 26 26 26 26 26 26 26
23 22 23 23 23 24 24 23 24 24 25 26 26 26 26 26 26 26 26 26 26 26 26 27 27 26 25 25 25 26 26 26 26 27 26 26 27 27 26 26 26 26 26
24 24 24 23 23 23 24 24 24 25 26 26 26 26 26 26 26 26 25 25 26 26 26 26 26 26 25 25 25 26 27 27 27 26 26 26 27 27 28 28 27 27 27
25 25 24 25 25 24 24 24 25 25 25 25 26 26 26 26 26 26 26 26 26 26 26 25 25 25 25 25 25 26 27 27 27 27 27 27 27 27 28 28 27 27 27
26 26 26 26 26 25 25 25 25 25 26 26 27 26 26 26 26 26 26 26 26 25 25 25 24 24 25 25 25 25 26 26 27 27 28 28 28 28 28 28 28 28 28
29 27 26 26 26 26 26 25 25 26 27 27 27 26 25 26 26 26 26 26 26 26 26 26 25 24 24 24 24 25 26 27 27 28 28 28 27 27 28 28 28 28 27
29 28 27 27 26 26 26 26 26 26 27 27 26 25 25 26 27 27 26 26 26 27 27 27 26 25 25 24 25 26 27 27 28 28 27 27 27 27 27 28 28 27 27
Wind_Direction
26 26 32 39 40 41 39 38 40 41 39 35 29 21 15 6 359 348 338 335 336 332 329 333 339 325 313 301 295 296 288 286 289 291 292 292 290 288 283 278 281 284 284
10 15 19 24 25 24 24 24 26 26 23 17 11 6 3 360 354 345 336 331 329 331 339 335 331 324 309 312 308 301 295 289 288 289 287 287 287 285 285 281 278 278 281
357 1 1 9 9 7 5 6 6 7 5 2 357 352 350 347 346 341 338 336 329 331 333 332 329 323 313 303 297 295 291 292 293 292 291 289 288 284 285 284 282 281 284
338 347 347 351 356 353 349 350 348 350 350 350 347 342 339 339 342 339 329 329 325 324 325 325 324 320 309 302 298 299 293 295 297 296 293 291 287 281 279 279 279 281 283
317 320 319 329 338 338 338 341 335 337 337 334 335 335 332 333 334 335 330 323 322 322 320 317 319 320 313 305 300 300 297 297 295 294 291 287 285 283 280 279 279 281 280
303 309 308 316 326 327 327 329 331 329 331 330 327 327 325 326 326 324 323 321 319 316 316 315 312 309 306 303 301 299 297 293 293 292 290 289 286 281 282 283 282 283 282
293 299 302 304 311 314 316 317 320 320 321 322 322 323 319 316 316 316 317 315 312 311 311 307 303 301 298 297 298 299 297 296 294 293 291 290 289 287 286 285 284 283 282
292 295 290 297 303 304 306 309 310 312 312 315 317 321 319 315 309 310 310 307 303 302 303 303 302 301 295 290 291 295 294 294 293 292 293 292 291 290 289 286 283 282 281
291 292 291 297 301 303 303 302 304 305 304 306 309 315 315 313 311 308 306 302 299 297 297 297 297 298 297 294 292 291 291 291 292 291 292 291 292 292 292 289 286 284 283
287 285 285 289 295 298 298 299 298 300 302 303 303 309 309 306 304 305 305 300 295 295 296 296 297 297 295 295 296 295 295 293 291 290 289 290 292 292 292 291 289 287 285
280 280 281 287 293 292 294 295 295 295 297 301 302 305 306 303 302 302 300 297 295 295 295 293 291 292 290 291 292 292 292 291 291 290 289 291 293 292 291 290 288 287 286
277 279 282 285 287 288 288 290 292 293 295 298 298 301 300 298 296 296 296 294 293 292 291 290 288 287 287 287 288 290 291 291 290 290 290 290 291 292 292 290 288 287 286
273 276 281 284 283 284 285 288 289 291 292 294 297 299 301 298 294 290 291 291 292 291 288 287 286 286 286 286 286 287 289 289 288 287 287 287 288 289 288 288 287 286 285
273 278 281 283 282 283 282 285 287 289 290 291 294 299 299 299 296 291 288 288 289 288 287 286 284 284 284 285 286 287 287 286 286 286 286 285 286 285 286 286 286 286 286
272 276 280 285 282 281 282 283 285 286 289 291 294 296 297 298 297 293 290 289 289 288 287 285 285 284 283 284 285 287 286 284 284 285 286 285 286 284 285 286 286 286 287
269 271 280 286 285 283 284 282 281 283 287 290 293 294 296 298 297 294 291 290 289 288 288 287 286 282 281 283 286 286 286 283 282 283 283 285 288 287 286 286 286 285 286
274 277 280 284 285 284 285 285 285 285 287 290 292 295 297 298 297 296 293 292 293 292 289 289 287 284 283 281 284 284 284 283 282 281 283 285 286 288 287 286 286 285 285
276 278 279 281 284 284 285 285 285 286 289 292 294 296 297 297 297 296 297 298 298 295 291 289 289 286 284 281 280 282 283 281 281 281 282 284 286 289 288 287 287 287 287
278 277 279 281 283 284 284 284 285 286 288 291 293 295 296 297 297 298 298 298 297 296 294 291 288 287 285 284 282 281 281 281 280 282 282 282 286 286 287 288 286 285 286
276 276 278 282 284 283 285 283 283 286 288 289 291 293 295 296 295 296 296 297 296 295 294 293 290 290 288 287 284 282 282 282 282 283 282 282 284 284 285 288 288 286 284
274 275 276 280 282 282 283 284 284 287 288 288 290 292 294 295 294 294 295 295 295 295 294 293 292 289 287 286 285 285 286 285 284 283 283 283 284 284 284 287 288 287 283
272 274 276 279 281 281 283 285 286 288 287 287 289 291 293 295 295 295 296 296 296 294 294 292 290 289 287 288 288 287 287 286 285 284 284 284 285 285 286 287 287 286 283
269 271 274 277 278 279 282 285 287 291 291 289 289 290 293 294 295 295 294 294 297 296 294 293 292 291 290 289 289 288 287 287 287 286 285 284 284 285 286 287 287 286 285
264 267 272 274 275 279 281 284 287 290 291 289 290 291 292 293 293 294 294 294 294 295 294 292 292 291 291 291 290 290 290 289 289 288 286 285 285 285 285 287 288 288 287
261 264 269 271 273 276 280 281 284 289 291 291 291 290 291 293 293 293 293 294 294 293 292 292 294 292 292 292 291 292 292 291 290 290 289 287 286 286 285 286 287 286 285
260 263 267 269 272 274 277 280 284 287 290 290 290 290 293 294 295 295 294 294 293 293 293 293 293 292 293 293 294 294 293 293 291 290 290 289 287 287 286 285 286 285 285
Height
5918 5917 5916 5915 5914 5913 5913 5912 5911 5910 5909 5909 5908 5907 5906 5905 5904 5903 5902 5902 5900 5899 5899 5898 5897 5896 5895 5895 5894 5894 5894 5893 5893 5892 5892 5891 5890 5890 5889 5889 5888 5888 5887
5918 5917 5916 5915 5915 5914 5913 5912 5911 5910 5909 5908 5907 5906 5905 5904 5903 5902 5901 5900 5899 5898 5897 5896 5895 5894 5893 5893 5893 5893 5892 5891 5891 5890 5890 5889 5889 5888 5887 5887 5886 5885 5885
5917 5917 5916 5915 5914 5914 5913 5912 5911 5910 5909 5908 5907 5906 5905 5903 5902 5901 5900 5898 5897 5896 5895 5894 5893 5893 5892 5892 5891 5890 5890 5889 5888 5888 5888 5887 5886 5885 5885 5884 5883 5882 5882
5916 5915 5915 5914 5913 5913 5912 5911 5910 5909 5908 5907 5906 5904 5903 5902 5901 5900 5898 5897 5896 5894 5893 5892 5892 5891 5890 5890 5889 5888 5887 5887 5886 5885 5885 5884 5883 5882 5882 5882 5880 5880 5879
5914 5914 5914 5913 5912 5911 5910 5909 5908 5908 5906 5905 5904 5903 5901 5900 5899 5898 5896 5895 5894 5893 5891 5890 5890 5889 5888 5887 5886 5886 5885 5884 5883 5883 5882 5881 5880 5879 5879 5878 5877 5876 5875
5913 5913 5912 5911 5910 5909 5909 5908 5906 5906 5904 5903 5902 5901 5900 5898 5897 5896 5894 5893 5892 5890 5889 5888 5887 5886 5885 5884 5883 5882 5882 5881 5880 5879 5878 5877 5876 5875 5875 5874 5873 5872 5871
5910 5910 5910 5909 5908 5907 5907 5906 5905 5904 5902 5901 5900 5899 5897 5896 5895 5893 5892 5891 5889 5888 5887 5885 5884 5883 5882 5881 5880 5879 5878 5878 5877 5876 5874 5873 5872 5871 5870 5870 5869 5868 5867
5906 5907 5907 5906 5906 5905 5904 5904 5903 5902 5900 5899 5898 5896 5895 5893 5892 5890 5889 5888 5887 5885 5884 5883 5881 5880 5879 5878 5877 5876 5875 5874 5873 5872 5871 5869 5868 5867 5866 5865 5864 5863 5862
5903 5904 5904 5903 5903 5902 5901 5900 5900 5899 5898 5896 5895 5893 5892 5890 5888 5887 5886 5885 5883 5882 5881 5879 5878 5877 5875 5874 5873 5872 5871 5870 5869 5868 5867 5865 5864 5862 5861 5860 5859 5858 5857
5899 5900 5900 5900 5899 5899 5898 5897 5896 5896 5895 5893 5891 5890 5888 5887 5885 5884 5882 5881 5879 5878 5877 5875 5874 5873 5872 5870 5869 5867 5866 5865 5864 5863 5862 5860 5859 5857 5856 5854 5853 5852 5852
5895 5896 5895 5895 5895 5895 5894 5893 5892 5892 5891 5889 5888 5886 5884 5882 5881 5880 5878 5877 5875 5874 5873 5871 5870 5869 5867 5866 5865 5863 5861 5860 5859 5857 5856 5855 5853 5852 5850 5849 5847 5846 5845
5892 5891 5891 5890 5890 5890 5889 5889 5888 5887 5886 5885 5884 5882 5880 5878 5876 5875 5873 5872 5871 5869 5868 5866 5865 5864 5862 5861 5860 5858 5856 5855 5853 5852 5850 5849 5847 5846 5844 5843 5841 5840 5838
5886 5886 5886 5886 5886 5885 5885 5884 5883 5882 5881 5880 5879 5876 5874 5872 5871 5869 5868 5866 5865 5863 5862 5861 5859 5858 5857 5855 5854 5852 5851 5849 5847 5845 5844 5842 5841 5840 5838 5836 5834 5833 5831
5882 5881 5881 5882 5881 5881 5880 5879 5878 5877 5876 5875 5873 5870 5869 5867 5864 5863 5861 5860 5859 5857 5856 5854 5853 5852 5851 5849 5847 5846 5844 5842 5841 5839 5837 5836 5834 5833 5831 5829 5827 5826 5824
5877 5877 5877 5876 5876 5875 5874 5873 5872 5871 5870 5869 5867 5865 5864 5861 5859 5857 5854 5853 5852 5850 5849 5847 5846 5845 5844 5842 5841 5839 5837 5836 5834 5833 5831 5829 5827 5826 5824 5822 5820 5819 5817
5871 5871 5871 5871 5870 5869 5869 5868 5866 5865 5864 5863 5861 5859 5858 5855 5853 5850 5848 5847 5845 5843 5841 5840 5838 5837 5835 5834 5833 5832 5830 5828 5827 5825 5824 5822 5821 5819 5817 5815 5813 5812 5810
5864 5864 5865 5864 5864 5863 5863 5862 5861 5859 5858 5856 5855 5853 5851 5849 5847 5844 5842 5840 5838 5836 5834 5832 5830 5829 5827 5826 5825 5824 5822 5821 5819 5818 5817 5815 5813 5812 5810 5808 5806 5805 5803
5858 5859 5859 5858 5858 5858 5857 5856 5854 5853 5851 5850 5848 5846 5844 5842 5840 5838 5835 5833 5831 5828 5826 5825 5823 5821 5819 5818 5816 5815 5814 5813 5812 5810 5809 5807 5806 5804 5802 5801 5799 5797 5796
5852 5853 5853 5852 5852 5851 5850 5849 5847 5846 5845 5843 5842 5840 5838 5835 5833 5831 5828 5826 5824 5821 5819 5817 5815 5813 5811 5809 5807 5806 5805 5804 5803 5802 5801 5799 5798 5796 5794 5793 5791 5790 5788
5845 5845 5846 5845 5845 5844 5844 5842 5840 5839 5838 5837 5835 5834 5831 5829 5826 5824 5821 5819 5816 5814 5811 5809 5807 5805 5803 5801 5799 5798 5797 5796 5795 5794 5792 5791 5789 5788 5786 5785 5784 5782 5780
5838 5838 5839 5839 5838 5838 5837 5836 5834 5832 5831 5830 5828 5826 5824 5821 5819 5817 5814 5812 5809 5807 5804 5801 5799 5797 5795 5794 5792 5790 5789 5788 5787 5785 5784 5783 5781 5780 5778 5777 5775 5774 5772
5832 5832 5832 5832 5831 5831 5830 5829 5828 5826 5824 5822 5820 5818 5816 5814 5811 5809 5807 5804 5801 5799 5796 5793 5791 5789 5787 5786 5784 5783 5781 5780 5779 5777 5776 5774 5773 5772 5770 5768 5767 5765 5763
5825 5825 5825 5825 5825 5824 5823 5822 5820 5818 5816 5814 5813 5810 5808 5806 5803 5801 5799 5796 5794 5791 5788 5786 5783 5781 5780 5778 5776 5775 5773 5772 5770 5769 5767 5766 5765 5763 5761 5760 5758 5756 5754
5817 5817 5818 5818 5817 5817 5816 5815 5813 5811 5809 5807 5805 5802 5800 5798 5796 5793 5791 5788 5786 5783 5781 5778 5776 5774 5773 5771 5769 5767 5765 5764 5762 5760 5759 5757 5755 5754 5752 5751 5749 5747 5745
5809 5810 5810 5810 5810 5809 5809 5808 5806 5804 5802 5799 5797 5795 5793 5791 5788 5786 5783 5781 5778 5776 5774 5771 5769 5767 5765 5764 5761 5759 5758 5756 5754 5752 5750 5748 5746 5745 5743 5741 5739 5738 5736
5800 5801 5802 5802 5802 5801 5800 5800 5798 5797 5794 5792 5789 5787 5785 5783 5781 5778 5776 5773 5771 5768 5766 5763 5761 5760 5758 5755 5754 5751 5749 5747 5745 5743 5741 5739 5738 5736 5734 5732 5730 5728 5727